| time (UTC) | temp F | wind direction | speed knots | gust knots | rain 1hr in | rain 24hr in | rain mn in | humidity % | barometer mb |
| 20260507052347 | 50 | 0.0 | 0.9 | 0.00 | 0.00 | 0.00 | 88 | 1021.8 | |
| 20260507051401 | 50 | 0.0 | 3.5 | 0.00 | 0.00 | 0.00 | 89 | 1021.8 | |
| 20260507050346 | 51 | 135 | 1.7 | 2.6 | 0.00 | 0.00 | 0.00 | 88 | 1021.8 |
| 20260507045351 | 51 | 169 | 0.9 | 2.6 | 0.00 | 0.00 | 0.00 | 87 | 1021.9 |
| 20260507044345 | 52 | 113 | 0.9 | 3.5 | 0.00 | 0.00 | 0.00 | 87 | 1021.9 |
| 20260507043350 | 52 | 147 | 0.9 | 4.3 | 0.00 | 0.00 | 0.00 | 86 | 1021.8 |
| 20260507042343 | 52 | 186 | 1.7 | 4.3 | 0.00 | 0.00 | 0.00 | 87 | 1021.7 |
| 20260507041349 | 52 | 143 | 0.9 | 2.6 | 0.00 | 0.00 | 0.00 | 86 | 1021.7 |
| 20260507040342 | 53 | 161 | 1.7 | 4.3 | 0.00 | 0.00 | 0.00 | 85 | 1021.6 |
| 20260507035346 | 53 | 179 | 0.9 | 7.0 | 0.00 | 0.00 | 0.00 | 85 | 1021.6 |
| 20260507034411 | 53 | 143 | 1.7 | 6.1 | 0.00 | 0.00 | 0.00 | 85 | 1021.6 |
| 20260507033344 | 53 | 244 | 0.9 | 4.3 | 0.00 | 0.00 | 0.00 | 82 | 1021.4 |
| 20260507032349 | 54 | 146 | 1.7 | 4.3 | 0.00 | 0.00 | 0.00 | 83 | 1021.4 |
| 20260507031403 | 54 | 54 | 0.9 | 2.6 | 0.00 | 0.00 | 0.00 | 82 | 1021.3 |
| 20260507030347 | 55 | 102 | 0.9 | 2.6 | 0.00 | 0.00 | 0.00 | 82 | 1021.2 |
| 20260507025351 | 55 | 104 | 0.9 | 3.5 | 0.00 | 0.00 | 0.00 | 81 | 1021.3 |
| 20260507024345 | 55 | 186 | 0.9 | 1.7 | 0.00 | 0.00 | 0.00 | 81 | 1021.3 |
| 20260507023350 | 55 | 135 | 0.9 | 2.6 | 0.00 | 0.00 | 0.00 | 80 | 1021.2 |
| 20260507022343 | 56 | 181 | 0.9 | 1.7 | 0.00 | 0.00 | 0.00 | 78 | 1021.3 |
| 20260507021348 | 56 | 148 | 0.9 | 2.6 | 0.00 | 0.00 | 0.00 | 79 | 1021.3 |
| 20260507020351 | 56 | 100 | 0.9 | 2.6 | 0.00 | 0.00 | 0.00 | 77 | 1021.3 |
| 20260507015346 | 56 | 82 | 1.7 | 4.3 | 0.00 | 0.00 | 0.00 | 77 | 1021.3 |
| 20260507014350 | 56 | 305 | 0.9 | 2.6 | 0.00 | 0.00 | 0.00 | 76 | 1021.2 |
| 20260507013404 | 57 | 107 | 0.9 | 2.6 | 0.00 | 0.00 | 0.00 | 74 | 1021.2 |
| 20260507012348 | 57 | 25 | 0.9 | 2.6 | 0.00 | 0.00 | 0.00 | 74 | 1021.1 |
| 20260507011343 | 57 | 143 | 1.7 | 3.5 | 0.00 | 0.00 | 0.00 | 74 | 1021.1 |
| 20260507010347 | 58 | 123 | 0.9 | 2.6 | 0.00 | 0.00 | 0.00 | 73 | 1021.1 |
| 20260507005351 | 58 | 50 | 0.9 | 1.7 | 0.00 | 0.00 | 0.00 | 71 | 1021.2 |
| 20260507004345 | 58 | 311 | 0.9 | 3.5 | 0.00 | 0.00 | 0.00 | 71 | 1021.2 |
| 20260507003410 | 59 | 346 | 1.7 | 2.6 | 0.00 | 0.00 | 0.00 | 69 | 1021.2 |
| 20260507002343 | 59 | 4 | 0.9 | 2.6 | 0.00 | 0.00 | 0.00 | 68 | 1021.1 |
| 20260507001348 | 60 | 283 | 0.9 | 3.5 | 0.00 | 0.00 | 0.00 | 68 | 1021.1 |
| 20260507000405 | 60 | 347 | 0.9 | 3.5 | 0.00 | 0.00 | 0.00 | 66 | 1021.1 |
| 20260506235347 | 60 | 1 | 0.9 | 6.1 | 0.00 | 0.00 | 0.00 | 66 | 1021.2 |
| 20260506234352 | 61 | 49 | 0.9 | 8.7 | 0.00 | 0.00 | 0.00 | 66 | 1021.1 |
| 20260506233345 | 61 | 323 | 0.9 | 3.5 | 0.00 | 0.00 | 0.00 | 66 | 1021.1 |
| 20260506232411 | 61 | 68 | 1.7 | 4.3 | 0.00 | 0.00 | 0.00 | 66 | 1021.1 |
| 20260506231344 | 61 | 184 | 1.7 | 4.3 | 0.00 | 0.00 | 0.00 | 67 | 1021.0 |
| 20260506230349 | 60 | 25 | 1.7 | 7.0 | 0.00 | 0.00 | 0.00 | 68 | 1021.2 |
| 20260506225342 | 60 | 346 | 2.6 | 5.2 | 0.00 | 0.00 | 0.00 | 66 | 1021.2 |
| 20260506224347 | 59 | 310 | 1.7 | 5.2 | 0.00 | 0.00 | 0.00 | 69 | 1021.3 |
| 20260506223351 | 61 | 94 | 2.6 | 7.0 | 0.00 | 0.00 | 0.00 | 66 | 1021.2 |
| 20260506222345 | 61 | 98 | 2.6 | 4.3 | 0.00 | 0.00 | 0.00 | 66 | 1021.2 |
| 20260506221350 | 62 | 142 | 1.7 | 7.0 | 0.00 | 0.00 | 0.00 | 64 | 1021.2 |
| 20260506220404 | 61 | 51 | 1.7 | 7.0 | 0.00 | 0.00 | 0.00 | 65 | 1021.3 |
| 20260506215348 | 60 | 357 | 1.7 | 5.2 | 0.00 | 0.00 | 0.00 | 64 | 1021.3 |
| 20260506214403 | 60 | 176 | 1.7 | 5.2 | 0.00 | 0.00 | 0.00 | 65 | 1021.2 |
| 20260506213348 | 61 | 33 | 1.7 | 3.5 | 0.00 | 0.00 | 0.00 | 65 | 1021.2 |
| 20260506212342 | 61 | 118 | 0.9 | 5.2 | 0.00 | 0.00 | 0.00 | 66 | 1021.3 |
| 20260506211406 | 60 | 200 | 1.7 | 5.2 | 0.00 | 0.00 | 0.00 | 64 | 1021.4 |
| 20260506210351 | 61 | 66 | 0.0 | 3.5 | 0.00 | 0.00 | 0.00 | 66 | 1021.3 |
| 20260506205344 | 61 | 186 | 0.9 | 6.1 | 0.00 | 0.00 | 0.00 | 64 | 1021.3 |
| 20260506204348 | 60 | 68 | 2.6 | 5.2 | 0.00 | 0.00 | 0.00 | 64 | 1021.2 |
| 20260506203342 | 60 | 257 | 0.9 | 5.2 | 0.00 | 0.00 | 0.00 | 66 | 1021.3 |
| 20260506202407 | 61 | 103 | 1.7 | 3.5 | 0.00 | 0.00 | 0.00 | 66 | 1021.2 |
| 20260506201351 | 59 | 47 | 0.9 | 5.2 | 0.00 | 0.00 | 0.00 | 67 | 1021.2 |
| 20260506200345 | 59 | 65 | 0.9 | 5.2 | 0.00 | 0.00 | 0.00 | 68 | 1021.3 |
| 20260506195350 | 59 | 124 | 1.7 | 3.5 | 0.00 | 0.00 | 0.00 | 69 | 1021.2 |
| 20260506194404 | 58 | 171 | 1.7 | 4.3 | 0.00 | 0.00 | 0.00 | 70 | 1021.2 |
| 20260506193349 | 59 | 264 | 1.7 | 3.5 | 0.00 | 0.00 | 0.00 | 70 | 1021.2 |
| 20260506192342 | 57 | 54 | 1.7 | 5.2 | 0.00 | 0.00 | 0.00 | 70 | 1021.2 |
| 20260506191347 | 58 | 116 | 2.6 | 5.2 | 0.00 | 0.00 | 0.00 | 71 | 1021.1 |
| 20260506190341 | 57 | 318 | 1.7 | 4.3 | 0.00 | 0.00 | 0.00 | 71 | 1021.1 |
| 20260506185346 | 58 | 46 | 1.7 | 5.2 | 0.00 | 0.00 | 0.00 | 70 | 1021.0 |
| 20260506184411 | 57 | 6 | 0.9 | 5.2 | 0.00 | 0.00 | 0.00 | 71 | 1020.9 |
| 20260506183344 | 57 | 337 | 0.9 | 3.5 | 0.00 | 0.00 | 0.00 | 71 | 1020.9 |
| 20260506182348 | 57 | 333 | 0.0 | 5.2 | 0.00 | 0.00 | 0.00 | 74 | 1020.8 |
| 20260506181342 | 56 | 292 | 0.0 | 5.2 | 0.00 | 0.00 | 0.00 | 76 | 1020.8 |
| 20260506180346 | 56 | 87 | 1.7 | 6.1 | 0.00 | 0.00 | 0.00 | 75 | 1020.8 |
| 20260506175351 | 56 | 337 | 1.7 | 3.5 | 0.00 | 0.00 | 0.00 | 75 | 1020.7 |
| 20260506174345 | 55 | 270 | 1.7 | 5.2 | 0.00 | 0.00 | 0.00 | 75 | 1020.7 |
| 20260506173349 | 55 | 89 | 2.6 | 6.1 | 0.00 | 0.00 | 0.00 | 75 | 1020.6 |
| 20260506172404 | 55 | 339 | 0.9 | 4.3 | 0.00 | 0.00 | 0.00 | 76 | 1020.6 |
| 20260506171347 | 55 | 184 | 1.7 | 4.3 | 0.00 | 0.00 | 0.00 | 76 | 1020.6 |
| 20260506170341 | 55 | 272 | 0.9 | 3.5 | 0.00 | 0.00 | 0.00 | 78 | 1020.5 |
| 20260506165346 | 54 | 40 | 1.7 | 3.5 | 0.00 | 0.00 | 0.00 | 77 | 1020.4 |
| 20260506164351 | 55 | 294 | 0.9 | 3.5 | 0.00 | 0.00 | 0.00 | 79 | 1020.2 |
| 20260506163345 | 54 | 8 | 1.7 | 3.5 | 0.00 | 0.00 | 0.00 | 80 | 1020.3 |
| 20260506162349 | 53 | 100 | 0.9 | 2.6 | 0.00 | 0.00 | 0.00 | 83 | 1020.3 |
| 20260506161343 | 53 | 314 | 0.9 | 3.5 | 0.00 | 0.00 | 0.00 | 85 | 1020.3 |
| 20260506160347 | 52 | 81 | 0.9 | 2.6 | 0.00 | 0.00 | 0.00 | 88 | 1020.3 |
| 20260506155352 | 52 | 37 | 0.9 | 1.7 | 0.00 | 0.00 | 0.00 | 89 | 1020.5 |
| 20260506154344 | 52 | 145 | 1.7 | 4.3 | 0.00 | 0.00 | 0.00 | 89 | 1020.5 |
| 20260506153349 | 52 | 204 | 0.9 | 2.6 | 0.00 | 0.00 | 0.00 | 89 | 1020.5 |
| 20260506152342 | 51 | 314 | 0.0 | 2.6 | 0.00 | 0.00 | 0.00 | 89 | 1020.4 |
| 20260506151346 | 51 | 106 | 0.9 | 4.3 | 0.00 | 0.00 | 0.00 | 90 | 1020.3 |
| 20260506150352 | 51 | 53 | 0.9 | 2.6 | 0.00 | 0.00 | 0.00 | 90 | 1020.0 |
| 20260506145345 | 51 | 307 | 0.9 | 1.7 | 0.00 | 0.00 | 0.00 | 91 | 1020.0 |
| 20260506144349 | 51 | 306 | 0.0 | 1.7 | 0.00 | 0.00 | 0.00 | 92 | 1019.8 |
| 20260506143343 | 51 | 0.0 | 0.0 | 0.00 | 0.00 | 0.00 | 93 | 1019.8 | |
| 20260506142348 | 50 | 79 | 0.9 | 2.6 | 0.00 | 0.00 | 0.00 | 93 | 1019.7 |
| 20260506141342 | 50 | 347 | 0.9 | 2.6 | 0.00 | 0.00 | 0.00 | 93 | 1019.8 |
| 20260506140347 | 50 | 285 | 0.0 | 0.9 | 0.00 | 0.00 | 0.00 | 93 | 1019.6 |
| 20260506135351 | 50 | 93 | 0.9 | 1.7 | 0.00 | 0.00 | 0.00 | 94 | 1019.5 |
| 20260506134345 | 50 | 359 | 0.0 | 0.9 | 0.00 | 0.00 | 0.00 | 93 | 1019.4 |
| 20260506133350 | 50 | 339 | 0.9 | 1.7 | 0.00 | 0.00 | 0.00 | 93 | 1019.4 |
| 20260506132343 | 50 | 358 | 0.0 | 0.9 | 0.00 | 0.00 | 0.00 | 94 | 1019.4 |
| 20260506131346 | 50 | 184 | 0.9 | 2.6 | 0.00 | 0.00 | 0.00 | 95 | 1019.3 |
| 20260506130351 | 50 | 86 | 0.9 | 2.6 | 0.00 | 0.00 | 0.00 | 95 | 1019.2 |
| 20260506125405 | 50 | 193 | 0.0 | 1.7 | 0.00 | 0.00 | 0.00 | 96 | 1019.2 |
| 20260506124349 | 50 | 182 | 0.0 | 1.7 | 0.00 | 0.00 | 0.00 | 95 | 1019.1 |
| 20260506123344 | 49 | 90 | 0.0 | 3.5 | 0.00 | 0.00 | 0.00 | 95 | 1019.1 |
| 20260506122349 | 49 | 88 | 0.0 | 2.6 | 0.00 | 0.00 | 0.00 | 95 | 1019.2 |
| 20260506121342 | 49 | 126 | 0.9 | 2.6 | 0.00 | 0.00 | 0.00 | 97 | 1019.2 |
| 20260506120347 | 50 | 149 | 1.7 | 4.3 | 0.00 | 0.00 | 0.00 | 97 | 1019.1 |
| 20260506115341 | 50 | 90 | 0.0 | 1.7 | 0.00 | 0.00 | 0.00 | 96 | 1019.1 |
| 20260506114347 | 50 | 50 | 0.0 | 1.7 | 0.00 | 0.00 | 0.00 | 95 | 1019.0 |
| 20260506113351 | 50 | 46 | 0.9 | 1.7 | 0.00 | 0.00 | 0.00 | 96 | 1018.8 |
| 20260506112345 | 50 | 0.0 | 1.7 | 0.00 | 0.00 | 0.00 | 96 | 1018.8 | |
| 20260506111409 | 50 | 0.0 | 3.5 | 0.00 | 0.00 | 0.00 | 97 | 1018.7 | |
| 20260506110344 | 50 | 178 | 0.9 | 1.7 | 0.00 | 0.00 | 0.00 | 98 | 1018.6 |
| 20260506105348 | 50 | 278 | 0.0 | 0.9 | 0.00 | 0.00 | 0.00 | 98 | 1018.5 |
| 20260506104342 | 50 | 5 | 0.0 | 1.7 | 0.00 | 0.00 | 0.00 | 98 | 1018.4 |
| 20260506103346 | 50 | 0.0 | 0.0 | 0.00 | 0.00 | 0.00 | 97 | 1018.2 | |
| 20260506102350 | 50 | 0.0 | 0.9 | 0.00 | 0.00 | 0.00 | 97 | 1018.1 | |
| 20260506101344 | 50 | 343 | 0.0 | 1.7 | 0.00 | 0.00 | 0.00 | 99 | 1018.0 |
| 20260506100349 | 50 | 27 | 0.0 | 0.9 | 0.00 | 0.00 | 0.00 | 99 | 1017.9 |
| 20260506095343 | 50 | 90 | 0.0 | 0.9 | 0.00 | 0.00 | 0.00 | 99 | 1018.0 |
| 20260506094347 | 50 | 113 | 0.9 | 0.9 | 0.00 | 0.00 | 0.00 | 99 | 1017.9 |
| 20260506093411 | 49 | 0.0 | 0.9 | 0.00 | 0.00 | 0.00 | 100 | 1018.0 | |
| 20260506092345 | 49 | 0.0 | 0.0 | 0.00 | 0.00 | 0.00 | 99 | 1018.0 | |
| 20260506091349 | 49 | 59 | 0.9 | 1.7 | 0.00 | 0.00 | 0.00 | 100 | 1018.0 |
| 20260506090343 | 49 | 50 | 0.0 | 1.7 | 0.00 | 0.00 | 0.00 | 100 | 1018.0 |
| 20260506085347 | 49 | 180 | 0.0 | 1.7 | 0.00 | 0.00 | 0.00 | 100 | 1018.0 |
| 20260506084341 | 49 | 240 | 0.0 | 0.9 | 0.00 | 0.00 | 0.00 | 100 | 1017.9 |
| 20260506083346 | 48 | 90 | 0.0 | 2.6 | 0.00 | 0.00 | 0.00 | 100 | 1017.9 |
| 20260506082351 | 48 | 139 | 0.0 | 3.5 | 0.00 | 0.00 | 0.00 | 100 | 1017.8 |
| 20260506081405 | 48 | 213 | 0.9 | 3.5 | 0.00 | 0.00 | 0.00 | 100 | 1017.8 |
| 20260506080349 | 47 | 90 | 0.9 | 1.7 | 0.00 | 0.00 | 0.00 | 100 | 1017.7 |
| 20260506073342 | 46 | 0.0 | 0.0 | 0.00 | 0.00 | 0.00 | 97 | 1017.4 | |
| 20260506072347 | 46 | 0.0 | 0.0 | 0.00 | 0.00 | 0.00 | 97 | 1017.3 | |
| 20260506071351 | 46 | 0.0 | 0.0 | 0.00 | 0.00 | 0.00 | 96 | 1017.2 | |
| 20260506070345 | 46 | 0.0 | 0.0 | 0.00 | 0.00 | 0.00 | 96 | 1017.2 | |
| 20260506062351 | 46 | 0.0 | 0.0 | 0.00 | 0.00 | 0.00 | 92 | 1016.9 | |
| 20260506061345 | 46 | 0.0 | 0.0 | 0.00 | 0.00 | 0.00 | 93 | 1016.9 | |
| 20260506060349 | 46 | 135 | 0.0 | 0.9 | 0.00 | 0.00 | 0.00 | 93 | 1016.9 |